Wind_Speed
22 21 19 18 17 16 16 15 15 14 14 13 14 13 12 13 13 16 16 14 13 14 14 18 18 15 15 15 20 18 19 20 23 22 21 22 22 22 23 24 24 25 24
26 24 23 21 20 19 18 20 18 18 16 16 17 16 16 15 15 18 20 16 14 12 16 19 18 20 22 20 23 18 23 24 26 29 28 28 25 25 26 27 27 28 29
28 27 26 26 24 22 22 22 23 22 20 19 20 19 18 17 18 18 21 21 19 18 21 22 18 20 24 22 25 21 23 24 27 30 27 27 28 29 27 26 29 32 36
27 29 29 29 26 27 26 24 25 25 24 24 23 23 23 21 20 20 22 25 22 23 22 21 23 23 25 28 27 28 29 30 30 30 29 30 32 31 30 31 30 34 36
21 26 29 30 30 30 31 25 26 27 27 25 28 28 27 26 25 25 24 26 26 24 25 23 24 24 27 27 29 28 34 28 28 32 35 35 37 33 31 34 33 34 35
23 23 22 28 33 33 33 28 27 28 27 28 29 32 32 29 26 26 27 28 29 28 28 26 27 25 26 25 28 29 29 28 33 32 38 42 38 31 30 35 35 32 32
27 26 23 24 29 32 28 28 27 28 28 28 31 33 31 32 31 30 30 29 30 32 31 31 29 32 33 34 32 33 36 37 38 40 40 43 41 37 40 36 35 33 32
24 29 26 24 24 26 25 25 27 26 26 27 29 30 32 32 30 27 28 27 30 30 31 32 31 31 29 30 31 34 37 40 39 38 38 39 44 42 44 43 36 33 34
26 27 29 27 25 22 22 23 23 23 24 25 28 30 30 28 26 26 27 28 29 30 32 32 33 29 36 29 32 33 37 39 41 41 43 44 47 45 46 46 42 33 32
28 28 30 30 29 26 26 24 24 25 25 25 27 27 27 29 28 31 29 30 27 30 33 34 33 33 32 34 43 37 46 41 45 40 48 50 50 48 48 39 39 31 25
30 30 30 31 32 31 28 28 28 27 26 28 28 28 30 32 32 34 36 30 30 30 33 34 33 36 39 34 42 42 39 46 55 55 60 51 52 43 47 37 29 28 23
33 34 32 32 34 32 31 30 28 28 28 28 29 31 32 34 33 32 32 32 33 33 34 32 35 34 34 36 36 37 44 51 51 59 55 47 49 47 38 29 24 19 22
36 35 33 31 32 32 31 29 29 27 28 30 32 32 30 29 30 30 32 33 36 35 36 34 33 36 34 36 38 41 41 45 50 56 52 42 48 43 32 27 22 14 11
34 33 31 31 30 30 30 29 29 30 30 31 31 31 31 30 31 32 34 34 38 39 37 35 36 36 40 34 40 41 43 45 53 53 55 40 42 35 29 22 19 12 13
31 31 29 29 29 31 32 32 33 33 32 32 32 32 32 33 32 33 34 35 36 38 37 38 39 40 35 39 36 41 45 49 46 56 49 51 37 31 21 19 12 13 14
29 31 32 33 32 31 32 33 31 31 31 32 32 31 32 34 33 33 35 36 36 37 41 46 42 37 39 39 38 36 39 42 51 53 60 48 33 26 19 13 13 13 13
32 33 33 31 32 33 32 31 30 31 32 31 31 31 30 30 31 31 34 37 37 37 40 45 42 42 41 43 37 36 39 44 54 61 56 42 26 22 17 14 14 14 14
31 31 31 30 30 30 30 30 31 31 32 32 31 30 30 34 37 36 36 37 38 40 41 41 41 43 42 44 39 38 38 43 54 62 49 36 26 20 15 17 15 16 17
31 30 30 30 31 32 34 34 35 33 32 33 36 36 38 41 43 37 38 39 37 37 38 41 43 41 40 40 39 41 38 45 51 61 48 30 20 18 19 17 16 18 19
30 30 32 33 34 35 36 38 37 42 47 40 40 43 41 35 34 34 35 36 39 40 42 39 40 42 40 43 41 42 42 47 54 57 33 26 19 23 20 17 19 19 20
33 34 35 37 38 38 41 45 46 36 38 41 43 38 33 34 35 37 39 42 44 44 44 41 41 41 42 46 42 40 41 41 49 47 31 17 20 23 19 19 19 18 18
38 39 40 40 40 41 36 35 39 46 42 39 37 37 37 37 39 41 44 47 48 50 42 43 46 48 48 42 43 42 40 46 46 43 32 27 27 23 21 18 18 17 14
41 41 39 39 37 35 38 44 50 33 35 38 38 38 38 40 41 42 45 47 46 45 44 47 46 47 53 49 44 44 43 47 38 40 27 28 31 26 20 17 18 15 11
42 41 40 40 41 43 47 37 36 41 41 38 38 42 44 43 44 46 47 46 45 45 43 44 44 47 51 48 47 38 35 40 34 38 38 29 29 25 18 18 16 12 10
41 42 45 47 47 36 34 36 37 37 38 39 43 45 46 46 45 46 46 46 45 42 42 38 39 41 43 39 37 30 29 30 38 36 35 35 28 22 16 17 14 12 12
44 41 42 35 27 31 35 37 39 42 42 43 45 45 44 44 43 43 44 45 46 41 37 36 37 35 34 28 32 31 31 25 35 36 39 33 30 20 18 18 15 13 13
Wind_Direction
236 237 238 235 243 240 246 244 248 252 260 264 268 274 270 271 277 282 293 300 301 297 311 313 304 299 302 306 296 291 284 286 295 296 291 292 294 288 285 284 284 282 285
241 237 243 241 237 244 247 254 252 261 257 265 271 271 276 280 282 284 291 301 298 292 301 286 295 288 295 290 298 299 299 299 297 297 298 292 288 286 284 283 285 282 283
242 240 237 243 246 245 246 248 258 262 266 267 275 281 277 284 288 289 294 298 298 300 292 298 296 301 299 300 300 303 300 286 288 298 293 293 288 286 281 278 279 277 277
244 244 241 240 243 247 246 254 259 266 271 277 278 278 284 285 288 289 288 294 297 295 294 294 297 306 298 294 303 292 299 290 292 299 293 292 289 283 285 284 288 291 288
251 251 250 247 246 246 249 245 256 262 270 275 280 282 282 286 287 287 288 286 290 291 290 288 294 292 299 294 291 291 295 288 301 294 288 298 294 289 292 296 294 295 288
250 257 259 253 250 249 249 251 254 262 270 276 280 283 287 290 287 284 284 285 287 288 288 290 286 284 291 295 289 292 299 293 279 303 293 294 287 285 289 287 289 289 289
250 252 259 258 251 258 262 255 256 264 270 274 277 284 287 286 285 288 289 289 287 292 289 289 291 280 289 286 293 290 290 300 283 292 285 290 290 294 296 284 285 286 285
254 252 255 257 259 261 259 260 262 264 270 274 279 281 281 283 283 282 280 282 289 290 291 292 293 289 288 278 289 286 289 293 292 280 290 293 292 279 299 293 283 280 277
250 251 253 256 257 259 256 258 264 269 273 274 277 277 280 283 286 286 287 285 285 288 290 293 293 290 297 276 286 286 293 286 287 272 284 290 285 274 291 293 278 269 272
249 250 253 251 255 254 256 260 265 269 269 272 277 284 284 284 288 289 290 289 288 289 289 288 289 286 284 287 304 279 286 298 267 268 279 285 275 279 279 264 259 257 264
250 252 255 255 251 253 257 262 270 275 274 273 278 280 282 285 286 289 290 292 290 290 291 288 285 284 292 288 295 270 289 286 270 277 282 275 268 270 273 263 262 260 258
249 253 256 255 252 252 254 261 271 277 276 279 283 282 282 282 284 287 290 289 291 291 292 293 292 290 290 282 291 269 294 266 277 272 274 263 276 269 271 268 264 265 271
250 254 255 255 254 255 257 262 271 277 280 282 279 279 280 279 281 283 286 289 290 291 292 291 292 292 289 286 284 286 280 276 279 272 271 258 267 267 260 256 257 264 268
245 246 252 252 252 255 256 258 269 273 276 273 274 274 276 277 278 280 285 288 289 289 290 294 292 294 287 283 284 284 274 277 272 274 259 260 265 263 249 256 271 263 250
242 247 246 247 251 252 257 261 266 266 266 269 269 272 273 274 275 278 280 282 283 286 293 297 290 289 285 290 280 292 289 279 280 261 278 263 258 247 247 255 281 255 246
243 243 244 249 252 252 255 261 261 262 265 267 271 275 281 286 286 287 288 287 286 287 294 291 286 288 288 279 285 282 285 279 274 265 257 255 260 242 247 279 248 246 251
240 241 244 244 246 249 250 251 255 260 263 268 273 276 279 281 283 286 288 288 288 286 287 283 287 283 282 279 280 289 279 278 265 259 249 251 244 240 246 260 250 253 263
240 241 243 244 243 243 249 255 261 267 269 270 270 275 282 287 295 293 286 284 281 281 279 283 281 279 282 289 284 274 280 280 262 255 251 247 244 238 249 247 248 258 268
237 237 236 238 243 249 255 262 266 269 272 280 286 285 287 294 290 284 281 282 282 276 278 276 277 281 282 272 281 287 291 284 274 254 242 236 222 216 250 251 256 266 276
240 241 245 248 251 257 263 268 272 275 277 285 287 291 295 288 282 280 279 281 280 278 278 277 275 273 277 280 281 286 277 288 262 256 231 222 212 244 244 253 260 272 279
245 247 249 252 255 260 263 268 272 268 281 288 292 287 285 281 282 284 283 278 277 278 276 276 276 273 277 283 278 282 278 279 274 241 226 210 227 243 243 250 263 277 274
248 247 247 248 252 258 265 260 265 274 287 285 286 286 285 285 281 280 277 277 279 278 283 274 275 280 270 274 285 284 281 277 262 232 221 227 235 234 242 254 266 262 267
248 249 251 256 261 264 266 274 283 282 280 287 293 289 284 282 280 280 278 280 283 287 282 274 280 278 275 277 275 275 278 275 269 234 213 224 227 233 240 253 255 255 278
251 252 252 253 258 270 279 281 274 277 282 283 284 282 284 284 282 281 284 288 290 287 286 286 285 282 283 278 276 278 272 266 225 214 218 227 226 232 237 241 245 256 267
244 249 254 263 277 282 284 281 280 280 280 280 282 283 282 282 285 288 291 292 290 289 282 284 287 285 288 274 272 268 257 243 223 216 214 222 228 230 231 234 236 244 239
251 264 281 284 287 279 278 277 279 280 284 282 281 283 286 289 289 290 291 292 293 292 287 286 287 294 291 275 275 253 253 230 200 208 214 218 229 231 232 226 231 232 230
Height
3180 3182 3183 3187 3188 3190 3191 3192 3193 3194 3194 3196 3196 3196 3196 3196 3198 3196 3197 3199 3199 3197 3198 3197 3197 3197 3195 3194 3193 3192 3190 3189 3190 3189 3187 3186 3186 3186 3185 3183 3182 3182 3182
3176 3178 3180 3182 3185 3186 3188 3188 3190 3190 3192 3192 3193 3193 3195 3195 3196 3194 3194 3195 3194 3194 3193 3190 3192 3191 3191 3190 3189 3188 3188 3187 3186 3185 3185 3182 3180 3180 3180 3179 3179 3179 3177
3172 3175 3176 3176 3180 3182 3183 3185 3186 3186 3187 3188 3189 3191 3191 3192 3192 3192 3189 3190 3190 3190 3190 3189 3187 3187 3187 3186 3184 3183 3183 3180 3179 3179 3178 3177 3176 3175 3172 3171 3171 3171 3170
3168 3169 3172 3174 3176 3178 3179 3181 3181 3182 3184 3185 3186 3186 3187 3188 3188 3188 3187 3184 3186 3186 3185 3185 3183 3184 3182 3181 3180 3178 3177 3176 3175 3174 3173 3170 3169 3168 3167 3166 3166 3165 3163
3164 3165 3168 3170 3172 3173 3175 3178 3178 3179 3179 3181 3180 3181 3182 3184 3184 3184 3183 3181 3180 3180 3180 3180 3179 3179 3178 3176 3175 3174 3172 3172 3171 3168 3167 3165 3164 3163 3163 3162 3160 3158 3155
3161 3162 3164 3165 3166 3167 3169 3173 3175 3174 3176 3175 3175 3174 3176 3178 3178 3178 3177 3176 3174 3174 3174 3175 3175 3174 3172 3172 3170 3168 3167 3166 3165 3165 3163 3160 3157 3156 3155 3153 3151 3148 3146
3157 3157 3159 3160 3160 3161 3165 3168 3170 3171 3172 3172 3171 3170 3171 3170 3171 3172 3171 3170 3170 3169 3168 3169 3168 3167 3166 3165 3165 3163 3160 3160 3158 3156 3154 3153 3152 3149 3150 3146 3146 3144 3142
3151 3152 3155 3156 3156 3158 3160 3163 3164 3166 3167 3167 3166 3166 3165 3165 3164 3164 3164 3163 3163 3162 3161 3161 3161 3160 3159 3157 3156 3154 3153 3152 3152 3150 3147 3143 3143 3142 3142 3141 3140 3137 3137
3147 3147 3150 3151 3152 3153 3155 3158 3160 3160 3161 3161 3159 3159 3157 3157 3158 3158 3158 3158 3157 3156 3154 3153 3152 3151 3151 3149 3151 3148 3146 3144 3140 3138 3139 3137 3135 3134 3134 3133 3130 3129 3127
3141 3142 3144 3147 3149 3150 3151 3152 3153 3154 3155 3155 3154 3153 3152 3151 3151 3150 3151 3150 3150 3149 3147 3145 3144 3143 3142 3142 3140 3142 3140 3137 3133 3129 3129 3125 3122 3122 3124 3123 3119 3118 3117
3135 3137 3139 3141 3143 3145 3147 3148 3149 3148 3149 3150 3149 3148 3147 3145 3144 3143 3140 3142 3141 3140 3139 3138 3136 3135 3134 3132 3131 3132 3130 3131 3126 3124 3121 3112 3112 3114 3115 3115 3115 3112 3110
3129 3131 3132 3134 3136 3139 3140 3142 3143 3142 3142 3142 3143 3141 3140 3138 3138 3136 3133 3133 3132 3132 3131 3131 3131 3129 3127 3126 3123 3121 3118 3117 3117 3113 3109 3099 3100 3106 3106 3108 3111 3108 3111
3123 3124 3126 3128 3131 3132 3134 3135 3136 3136 3136 3135 3134 3133 3133 3132 3130 3128 3126 3125 3123 3122 3122 3122 3123 3122 3119 3116 3114 3114 3111 3110 3107 3106 3102 3097 3093 3097 3096 3097 3100 3102 3102
3116 3119 3121 3122 3124 3126 3127 3128 3128 3128 3128 3127 3126 3125 3124 3124 3122 3121 3120 3118 3115 3113 3112 3112 3113 3111 3110 3107 3105 3104 3103 3102 3099 3095 3093 3092 3089 3088 3087 3093 3094 3094 3097
3110 3112 3114 3116 3118 3119 3120 3120 3120 3119 3119 3119 3119 3119 3117 3116 3114 3113 3111 3110 3109 3105 3102 3102 3102 3100 3100 3097 3096 3095 3094 3092 3088 3085 3083 3083 3083 3082 3084 3087 3089 3091 3092
3104 3105 3107 3109 3110 3111 3112 3112 3113 3112 3111 3111 3110 3110 3111 3110 3109 3108 3106 3104 3101 3097 3092 3092 3092 3091 3089 3088 3085 3086 3086 3083 3080 3079 3074 3070 3076 3078 3079 3083 3084 3085 3086
3096 3098 3099 3101 3102 3103 3104 3104 3104 3104 3104 3104 3104 3103 3102 3101 3100 3100 3097 3095 3091 3089 3085 3083 3081 3082 3078 3077 3077 3078 3077 3074 3072 3069 3064 3066 3070 3072 3074 3078 3081 3082 3081
3090 3092 3093 3094 3095 3096 3097 3097 3097 3098 3097 3096 3095 3094 3094 3093 3092 3089 3086 3082 3080 3078 3075 3075 3070 3070 3072 3071 3068 3065 3064 3063 3061 3061 3060 3060 3064 3069 3071 3072 3075 3076 3076
3082 3083 3085 3087 3088 3089 3089 3089 3089 3089 3089 3088 3088 3086 3084 3081 3080 3078 3074 3071 3068 3068 3067 3064 3062 3061 3059 3059 3059 3058 3058 3058 3056 3051 3052 3054 3056 3061 3066 3068 3069 3071 3070
3076 3078 3079 3080 3080 3081 3081 3081 3080 3080 3080 3079 3077 3077 3074 3071 3069 3066 3066 3063 3061 3058 3056 3053 3052 3050 3048 3049 3050 3050 3051 3047 3042 3045 3048 3049 3051 3057 3060 3063 3065 3065 3063
3069 3070 3070 3071 3071 3071 3071 3070 3069 3069 3069 3068 3066 3065 3063 3062 3060 3058 3056 3054 3050 3047 3046 3042 3042 3040 3040 3041 3040 3039 3038 3038 3036 3037 3044 3046 3048 3052 3056 3058 3059 3057 3057
3060 3060 3059 3059 3060 3060 3060 3059 3058 3058 3058 3057 3057 3055 3053 3052 3049 3048 3044 3041 3039 3036 3034 3034 3033 3030 3028 3030 3029 3028 3027 3030 3025 3029 3036 3040 3044 3047 3050 3051 3052 3051 3051
3051 3051 3052 3052 3051 3052 3051 3049 3048 3048 3049 3047 3046 3043 3042 3039 3036 3034 3031 3028 3025 3022 3020 3021 3018 3019 3017 3017 3018 3016 3012 3014 3017 3021 3029 3034 3038 3040 3043 3044 3046 3046 3045
3043 3042 3041 3039 3038 3038 3039 3037 3037 3037 3037 3035 3033 3029 3027 3025 3023 3019 3016 3015 3012 3010 3009 3006 3006 3006 3005 3004 3005 3002 3001 3003 3010 3014 3022 3027 3030 3034 3037 3038 3039 3040 3040
3029 3028 3027 3027 3027 3029 3028 3027 3026 3025 3024 3023 3020 3016 3013 3010 3008 3005 3002 3001 3000 2999 2998 2996 2994 2994 2992 2990 2991 2991 2991 2993 2999 3009 3015 3021 3023 3028 3031 3032 3032 3034 3035
3016 3017 3017 3016 3018 3020 3020 3018 3014 3011 3011 3009 3007 3005 3001 2998 2994 2993 2991 2989 2988 2988 2986 2985 2984 2980 2980 2979 2983 2983 2983 2988 2996 3003 3009 3014 3018 3021 3023 3026 3027 3028 3031